Regional Weather Roundup
Issued by NWS

Home | Current Version | Previous Version | Text Only | Print | Product List | Glossary Off
Versions: 1 2 3 4 5 6 7 8 9 10 11 12 13 14 15 16 17 18 19 20 21 22 23 24 25 26 27 28 29 30 31 32 33 34 35 36 37 38 39 40 41 42 43 44 45 46 47 48 49 50

000
ASUS43 KMKX 270700
RWRWI

WISCONSIN REGIONAL WEATHER ROUNDUP
NATIONAL WEATHER SERVICE MILWAUKEE/SULLIVAN WI
200 AM CDT MON APR 27 2015

NOTE: "FAIR" INDICATES FEW OR NO CLOUDS BELOW 12,000 FEET WITH NO
SIGNIFICANT WEATHER AND/OR OBSTRUCTIONS TO VISIBILITY.

WIZ001-002-006>008-014>016-023>028-270800-
NORTHWEST WISCONSIN

CITY           SKY/WX    TMP DP  RH WIND       PRES   REMARKS
SUPERIOR ARPT  CLEAR     28  27  95 CALM      30.21R
ASHLAND        CLEAR     28  27  96 S3        30.19F
HAYWARD        CLEAR     32  26  78 CALM      30.17S
SIREN          CLEAR     33  26  76 CALM      30.19R
CUMBERLAND     CLEAR     37  27  65 N5        30.17R WCI  34
RICE LAKE      CLEAR     32  28  83 CALM      30.18S
CHETEK         CLEAR     37  29  71 CALM      30.16S
LADYSMITH      CLEAR     35  27  72 N5        30.17S WCI  31
EAU CLAIRE     NOT AVBL
MENOMONIE      CLEAR     42  26  53 N3        30.16S
NEW RICHMOND   CLEAR     36  27  71 NE3       30.17S
OSCEOLA        CLEAR     36  29  75 CALM      30.20S
$$

WIZ003>005-009-010-017-018-270800-
NORTH CENTRAL WISCONSIN

CITY           SKY/WX    TMP DP  RH WIND       PRES   REMARKS
MANITOWISH WTR CLEAR     34  27  76 N3        30.14S
ARBOR VITAE    CLEAR     33  27  78 CALM      30.13F
WOODRUFF       CLEAR     33  27  78 CALM      30.13F
RHINELANDER    CLEAR     33  25  72 CALM      30.13F
EAGLE RIVER    CLEAR     33  26  76 CALM      30.12F
LAND O LAKES   CLEAR     32  28  85 N5        30.14S WCI  28
PHILLIPS       CLEAR     33  26  76 CALM      30.14S
TOMAHAWK       CLEAR     31  27  84 CALM      30.14S
MEDFORD        CLEAR     35  28  75 NE3       30.13S
MERRILL        CLEAR     37  30  75 CALM      30.13S
$$

WIZ029-030-035-036-043>047-270800-
CENTRAL WISCONSIN

CITY           SKY/WX    TMP DP  RH WIND       PRES   REMARKS
WAUSAU         CLEAR     41  30  65 CALM      30.11S
MOSINEE        CLEAR     41  30  65 N5        30.13S
MARSHFIELD     CLEAR     42  29  59 NE6       30.12S
STEVENS POINT  CLEAR     33  27  78 CALM      30.13S
WAUPACA        CLEAR     36  32  85 NW3       30.12S
WAUTOMA        NOT AVBL
WISC RAPIDS    CLEAR     39  27  62 CALM      30.14R
CAMP DOUGLAS   NOT AVBL
$$

WIZ011>013-019>022-031-037>040-048>050-270800-
NORTHEAST WISCONSIN

CITY           SKY/WX    TMP DP  RH WIND       PRES   REMARKS
ANTIGO         CLEAR     35  29  79 N6        30.12S WCI  30
SHAWANO          N/A     39  30  69 CALM      30.11F
OCONTO         CLEAR     40  29  65 NW3       30.10S
STURGEON BAY   PTCLDY    43  28  56 N9        30.11S
GREEN BAY      CLEAR     41  31  67 N8        30.10S
MANITOWOC      NOT AVBL
APPLETON       CLEAR     37  30  75 N7        30.10S WCI  32
CLINTONVILLE   CLEAR     37  32  81 NW5       30.11S WCI  34
OSHKOSH        CLEAR     41  31  67 NW5       30.10S
$$

WIZ032>034-041-042-053>061-270800-
SOUTHWEST WISCONSIN

CITY           SKY/WX    TMP DP  RH WIND       PRES   REMARKS
LA CROSSE      CLEAR     47  31  53 N3        30.12S
SPARTA         CLEAR     37  27  66 CALM      30.12S
VIROQUA        CLEAR     43  29  57 NE7       30.10S
BOSCOBEL       CLEAR     43  31  62 NE6       30.12R
PRAIRIE DU CHI CLEAR     41  32  71 CALM      30.09S
PLATTEVILLE    CLEAR     41  30  66 E9        30.09R
$$

WIZ056-057-062-063-064-067-068-270800-
SOUTH CENTRAL WISCONSIN

CITY           SKY/WX    TMP DP  RH WIND       PRES   REMARKS
REEDSBURG      CLEAR     42  29  60 CALM      30.11S
BARABOO/DELLS  CLEAR     39  28  65 E3        30.11S
LONE ROCK      NOT AVBL
MINERAL POINT  CLEAR     43  28  56 E9        30.10R
MADISON        CLEAR     37  29  72 N5        30.11S WCI  33
MIDDLETON      CLEAR     41  29  63 CALM      30.11S
WATERTOWN      CLEAR     35  32  91 CALM      30.10S
MONROE         CLEAR     39  30  70 NE5       30.10R
JANESVILLE     CLEAR     39  28  65 CALM      30.09S
$$

WIZ051-052-058>065-066-070>072-270800-
SOUTHEAST WISCONSIN

CITY           SKY/WX    TMP DP  RH WIND       PRES   REMARKS
MILWAUKEE      CLEAR     40  30  67 N9        30.08F WCI  34
WAUKESHA       CLEAR     36  30  80 NW3       30.10S
MILWAUKEE/TIMM CLEAR     36  28  75 NW5       30.09S WCI  32
RACINE         CLEAR     40  31  70 N9        30.09S WCI  34
BURLINGTON     CLEAR     33  28  81 NW5       30.09S WCI  28
KENOSHA        CLEAR     39  31  72 N6        30.07S WCI  35
FOND DU LAC    CLEAR     38  31  76 W5        30.10S WCI  34
SHEBOYGAN      MOCLDY    39  30  70 N8        30.08F WCI  33
WEST BEND      CLEAR     36  30  80 NW6       30.08S WCI  31
JUNEAU         CLEAR     33  30  88 CALM      30.11S
$$

LSZ147-162-270800-
LAKE SUPERIOR

STATION/POSITION TIME  TEMP    WIND        PRES    WAVE
                       AIR SEA DIR/SP/G            HT/PER
                 (UTC) (F)     (DEG/KT/KT) (MB)    (FT/S)
W MID LAKE BUOY  0550   37 35  300/  8/  8 1023.4S   1
DEVILS ISLAND    0600   38     330/  3/  3 1023.2R
PORT WING        0600   31     170/  3/  4 1022.7
SAXON HARBOR     0600   29      CALM  /  2 1022.0S
$$

LMZ867-665-643>646-270800-
LAKE MICHIGAN

STATION/POSITION TIME  TEMP    WIND        PRES    WAVE
                       AIR SEA DIR/SP/G            HT/PER
                 (UTC) (F)     (DEG/KT/KT) (MB)    (FT/S)
CHAMBERS ISLAND  0600   41     320/  4/  6 1019.3R
NORTHPORT PIER   0600   41     310/ 10/ 13 1018.6S
SISTER BAY       0647   40     360/  9/ 10   N/A
KEWAUNEE LAKESHO 0606   43     330/  5/ 10 1017.8R
SHEBOYGAN LAKESH 0600   42     320/  8/ 11 1019.4R
PORT WASHINGTON  0600   41     320/  5/  7 1019.3
MILWAUKEE LAKESH 0600   42     360/ 12/ 16   N/A
KENOSHA   LAKESH 0600   43      10/ 20/ 23 1017.9S
$$

TC  - TEMPERATURE IN CELSIUS
VSB - VISIBILITY IN STATUTE MILES
WCI - WIND CHILL INDEX
HX  - HEAT INDEX



USA.gov is the U.S. government's official web portal to all federal, state and local government web resources and services.